• In United Kingdom
  • List of Countries
  • For 7 days
  • Water Temperature
  • Satellite Maps
  • Weather Map
  • Weather Widgets
  • user-avatar
    Login

    Hourly Weather Korçe

    Today, 26 June, Monday

    Time Temperature Precipitation Wind Pressure Humidity
    00:00 +16°C° 0.4 mm 0 mps 666 mmHg 84%
    01:00 +15°C° 0 mm 0 mps 666 mmHg 85%
    02:00 +15°C° 0.3 mm 0 mps 666 mmHg 86%
    03:00 +14°C° 0.3 mm 0 mps 666 mmHg 87%
    04:00 +14°C° 0.3 mm 0 mps 665 mmHg 88%
    05:00 +17°C° 0.1 mm 0 mps 666 mmHg 80%
    06:00 +19°C° 0.1 mm 0 mps 667 mmHg 72%
    07:00 +22°C° 0 mm 0 mps 668 mmHg 62%
    08:00 +25°C° 0.5 mm 1 mps 668 mmHg 56%
    09:00 +27°C° 0.5 mm 1 mps 668 mmHg 49%
    10:00 +28°C° 0.5 mm 1 mps 669 mmHg 43%
    11:00 +29°C° 0.5 mm 2 mps 669 mmHg 42%
    12:00 +29°C° 0.5 mm 2 mps 668 mmHg 42%
    13:00 +29°C° 0.5 mm 2 mps 668 mmHg 42%
    14:00 +29°C° 0.7 mm 2 mps 668 mmHg 44%
    15:00 +28°C° 0.7 mm 2 mps 668 mmHg 46%
    16:00 +28°C° 0.7 mm 2 mps 668 mmHg 48%
    17:00 +25°C° 0.2 mm 2 mps 667 mmHg 56%
    18:00 +23°C° 0.2 mm 2 mps 666 mmHg 64%
    19:00 +20°C° 0.2 mm 1 mps 666 mmHg 72%
    20:00 +19°C° 0.2 mm 1 mps 666 mmHg 76%
    21:00 +18°C° 0.2 mm 1 mps 666 mmHg 80%
    22:00 +16°C° 0.2 mm 1 mps 666 mmHg 85%
    23:00 +15°C° 0.1 mm 1 mps 666 mmHg 85%

    Tomorrow, 27 June, Tuesday

    Time Temperature Precipitation Wind Pressure Humidity
    00:00 +14°C° 0.1 mm 0 mps 666 mmHg 86%
    01:00 +13°C° 0.1 mm 0 mps 666 mmHg 87%
    02:00 +13°C° 0 mm 0 mps 665 mmHg 87%
    03:00 +13°C° 0 mm 0 mps 665 mmHg 86%
    04:00 +13°C° 0 mm 0 mps 665 mmHg 86%
    05:00 +15°C° 0 mm 0 mps 666 mmHg 76%
    06:00 +18°C° 0 mm 0 mps 667 mmHg 66%
    07:00 +21°C° 0 mm 0 mps 668 mmHg 57%
    08:00 +23°C° 0 mm 0 mps 668 mmHg 50%
    09:00 +27°C° 0 mm 1 mps 669 mmHg 43%
    10:00 +28°C° 0 mm 1 mps 669 mmHg 36%
    11:00 +29°C° 0 mm 2 mps 669 mmHg 34%
    12:00 +29°C° 0 mm 2 mps 669 mmHg 31%
    13:00 +30°C° 0 mm 3 mps 669 mmHg 29%
    14:00 +29°C° 0 mm 3 mps 669 mmHg 31%
    15:00 +29°C° 0 mm 3 mps 668 mmHg 33%
    16:00 +28°C° 0 mm 3 mps 668 mmHg 36%
    17:00 +25°C° 0 mm 2 mps 667 mmHg 45%
    18:00 +23°C° 0 mm 2 mps 666 mmHg 54%
    19:00 +20°C° 0 mm 1 mps 666 mmHg 63%
    20:00 +19°C° 0 mm 1 mps 666 mmHg 67%
    21:00 +16°C° 0 mm 1 mps 666 mmHg 72%
    22:00 +15°C° 0 mm 1 mps 665 mmHg 76%
    23:00 +15°C° 0 mm 1 mps 665 mmHg 76%

    Day after tomorrow, 28 June, Wednesday

    Time Temperature Precipitation Wind Pressure Humidity
    00:00 +15°C° 0 mm 1 mps 665 mmHg 76%
    01:00 +15°C° 0 mm 1 mps 665 mmHg 76%
    02:00 +15°C° 0 mm 1 mps 665 mmHg 76%
    03:00 +14°C° 0 mm 1 mps 665 mmHg 76%
    04:00 +14°C° 0 mm 1 mps 664 mmHg 75%
    05:00 +18°C° 0 mm 1 mps 665 mmHg 67%
    06:00 +21°C° 0 mm 1 mps 666 mmHg 59%
    07:00 +23°C° 0 mm 1 mps 667 mmHg 51%
    08:00 +25°C° 0 mm 1 mps 667 mmHg 46%
    09:00 +27°C° 0 mm 1 mps 668 mmHg 40%
    10:00 +29°C° 0 mm 1 mps 668 mmHg 35%
    11:00 +29°C° 0 mm 2 mps 668 mmHg 34%
    12:00 +30°C° 0 mm 2 mps 668 mmHg 32%
    13:00 +30°C° 0 mm 3 mps 668 mmHg 31%
    14:00 +30°C° 0 mm 3 mps 668 mmHg 33%
    15:00 +29°C° 0 mm 3 mps 667 mmHg 36%
    16:00 +28°C° 0 mm 3 mps 667 mmHg 38%
    17:00 +26°C° 0 mm 2 mps 667 mmHg 48%
    18:00 +23°C° 0 mm 2 mps 666 mmHg 58%
    19:00 +20°C° 0 mm 1 mps 665 mmHg 69%
    20:00 +19°C° 0 mm 1 mps 665 mmHg 71%
    21:00 +18°C° 0 mm 1 mps 665 mmHg 73%
    22:00 +18°C° 0 mm 1 mps 665 mmHg 76%
    23:00 +16°C° 0 mm 1 mps 665 mmHg 75%

    29 June, Thursday

    Time Temperature Precipitation Wind Pressure Humidity
    00:00 +16°C° 0 mm 1 mps 665 mmHg 75%
    01:00 +16°C° 0 mm 1 mps 665 mmHg 74%
    02:00 +16°C° 0 mm 2 mps 665 mmHg 73%
    03:00 +16°C° 0 mm 2 mps 665 mmHg 71%
    04:00 +16°C° 0 mm 2 mps 665 mmHg 70%
    05:00 +19°C° 0 mm 2 mps 666 mmHg 62%
    06:00 +21°C° 0 mm 2 mps 667 mmHg 54%
    07:00 +25°C° 0 mm 2 mps 667 mmHg 46%
    08:00 +27°C° 0 mm 2 mps 668 mmHg 40%
    09:00 +29°C° 0 mm 3 mps 668 mmHg 34%
    10:00 +31°C° 0 mm 3 mps 669 mmHg 29%
    11:00 +33°C° 0 mm 4 mps 669 mmHg 28%
    12:00 +33°C° 0 mm 4 mps 669 mmHg 27%
    13:00 +34°C° 0 mm 5 mps 669 mmHg 26%
    14:00 +33°C° 0 mm 5 mps 669 mmHg 27%
    15:00 +32°C° 0 mm 4 mps 669 mmHg 28%
    16:00 +32°C° 0 mm 4 mps 668 mmHg 30%
    17:00 +28°C° 0 mm 3 mps 668 mmHg 39%
    18:00 +25°C° 0 mm 3 mps 667 mmHg 49%
    19:00 +21°C° 0 mm 2 mps 667 mmHg 59%
    20:00 +20°C° 0 mm 2 mps 667 mmHg 60%
    21:00 +19°C° 0 mm 2 mps 667 mmHg 61%
    22:00 +18°C° 0 mm 2 mps 667 mmHg 63%
    23:00 +18°C° 0 mm 2 mps 667 mmHg 62%

    30 June, Friday

    Time Temperature Precipitation Wind Pressure Humidity
    00:00 +18°C° 0 mm 2 mps 667 mmHg 61%
    01:00 +17°C° 0 mm 2 mps 667 mmHg 60%
    02:00 +17°C° 0 mm 2 mps 667 mmHg 58%
    03:00 +17°C° 0 mm 2 mps 667 mmHg 57%
    04:00 +17°C° 0 mm 2 mps 667 mmHg 56%
    05:00 +20°C° 0 mm 1 mps 668 mmHg 51%
    06:00 +23°C° 0 mm 1 mps 669 mmHg 46%
    07:00 +26°C° 0 mm 1 mps 670 mmHg 42%
    08:00 +28°C° 0 mm 1 mps 671 mmHg 37%
    09:00 +30°C° 0 mm 1 mps 671 mmHg 32%
    10:00 +32°C° 0 mm 1 mps 672 mmHg 28%
    11:00 +34°C° 0 mm 2 mps 672 mmHg 26%
    12:00 +35°C° 0 mm 2 mps 672 mmHg 25%
    13:00 +35°C° 0 mm 2 mps 671 mmHg 23%
    14:00 +35°C° 0 mm 2 mps 671 mmHg 25%
    15:00 +34°C° 0 mm 2 mps 671 mmHg 26%
    16:00 +34°C° 0 mm 2 mps 671 mmHg 28%
    17:00 +30°C° 0 mm 2 mps 670 mmHg 39%
    18:00 +26°C° 0 mm 1 mps 669 mmHg 49%
    19:00 +23°C° 0 mm 1 mps 668 mmHg 60%
    20:00 +22°C° 0 mm 1 mps 668 mmHg 63%
    21:00 +21°C° 0 mm 1 mps 668 mmHg 66%
    22:00 +20°C° 0 mm 1 mps 668 mmHg 69%
    23:00 +20°C° 0 mm 1 mps 667 mmHg 68%

    1 July, Saturday

    Time Temperature Precipitation Wind Pressure Humidity
    00:00 +19°C° 0 mm 1 mps 667 mmHg 67%
    01:00 +19°C° 0 mm 1 mps 667 mmHg 67%
    02:00 +19°C° 0 mm 1 mps 667 mmHg 65%
    03:00 +19°C° 0 mm 1 mps 666 mmHg 63%
    04:00 +18°C° 0 mm 1 mps 666 mmHg 62%
    05:00 +22°C° 0 mm 1 mps 667 mmHg 53%
    06:00 +25°C° 0 mm 1 mps 668 mmHg 44%
    07:00 +29°C° 0 mm 1 mps 669 mmHg 35%
    08:00 +31°C° 0 mm 2 mps 669 mmHg 30%
    09:00 +32°C° 0 mm 2 mps 670 mmHg 24%
    10:00 +35°C° 0 mm 2 mps 670 mmHg 19%
    11:00 +36°C° 0 mm 3 mps 670 mmHg 18%
    12:00 +36°C° 0 mm 3 mps 670 mmHg 18%
    13:00 +36°C° 0 mm 4 mps 670 mmHg 17%
    14:00 +36°C° 0 mm 3 mps 669 mmHg 18%
    15:00 +35°C° 0 mm 3 mps 669 mmHg 20%
    16:00 +34°C° 0 mm 3 mps 668 mmHg 21%
    17:00 +30°C° 0 mm 2 mps 667 mmHg 31%
    18:00 +26°C° 0 mm 2 mps 666 mmHg 40%
    19:00 +22°C° 0 mm 1 mps 665 mmHg 50%
    20:00 +21°C° 0 mm 1 mps 665 mmHg 53%
    21:00 +20°C° 0 mm 1 mps 665 mmHg 57%
    22:00 +18°C° 0 mm 1 mps 664 mmHg 60%
    23:00 +18°C° 0 mm 1 mps 664 mmHg 60%
    Show more